Location: Unspecified
(0.0000°N, 0.0000°E)
Time: 23:07:55
(UTC+00:00)

Vanguard 2 - Pass Details

Date: 10 October 2020
Orbit: 554 x 2937 km, 32.9° (Epoch: 28 October)

Event Time Altitude Azimuth Distance (km) Brightness Sun altitude
Rises 08:05:52 0° 326° (NW) 3,326 10.5 34.4°
Reaches altitude 10° 08:09:18 10° 344° (NNW) 2,116 9.7 35.3°
Maximum altitude 08:12:32 18° 29° (NNE) 1,462 9.4 36.1°
Drops below altitude 10° 08:15:23 10° 74° (ENE) 1,834 10.6 36.8°
Sets 08:18:04 0° 95° (E) 2,716 11.3 37.5°
